Regional Weather Roundup
Issued by NWS Mt. Holly, NJ

Home | Current Version | Previous Version | Text Only | Print | Product List | Glossary On
Versions: 1 2 3 4 5 6 7 8 9 10 11 12 13 14 15 16 17 18 19 20 21 22 23 24 25 26 27 28 29 30 31 32 33 34 35 36 37 38 39 40 41 42 43 44
000
ASUS41 KPHI 251610
RWRPHI

REGIONAL WEATHER ROUNDUP
NATIONAL WEATHER SERVICE MOUNT HOLLY NJ
1100 AM EST THU DEC 25 2014

NOTE:  "FAIR" INDICATES FEW OR NO CLOUDS BELOW 12,000 FEET WITH NO
SIGNIFICANT WEATHER AND/OR OBSTRUCTIONS TO VISIBILITY.

 * = STATION DOES NOT REPORT PRECIPITATION (E.G. RAIN, SNOW, ETC.)
        OR FOG.

NJZ015>026-251700-
SOUTHERN NEW JERSEY

CITY           SKY/WX    TMP DP  RH WIND       PRES   REMARKS
POMONA         CLOUDY    49  40  71 W16G26    29.83R
RIO GRANDE*    CLOUDY    48  36  61 W14G21    29.85R
MILLVILLE      PTSUNNY   51  34  52 W28G37    29.86R
WRIGHTSTOWN    PTSUNNY   51  36  55 NW18      29.80R
MOUNT HOLLY    MOSUNNY   51  33  50 W10G25    29.83R
TRENTON        MOSUNNY   50  31  48 W18G29    29.81R

$$
NJZ001>014-251700-
NORTHERN NEW JERSEY

CITY           SKY/WX    TMP DP  RH WIND       PRES   REMARKS
SUSSEX         MOSUNNY   48  30  49 W13G22    29.75R
ANDOVER*       NOT AVBL
MORRISTOWN     MOSUNNY   54  34  47 NW14G30   29.78R
NEWARK         PTSUNNY   51  32  48 W22G31    29.77R
TETERBORO      PTSUNNY   49  35  58 NW20G28   29.75R
CALDWELL       MOSUNNY   50  28  42 NW20G26   29.77R
SOMERVILLE     MOSUNNY   50  31  48 W12G25    29.78R
ALLAIRE*       CLOUDY    50  30  46 NW25G37   29.78R
TOMS RIVER*    CLOUDY    52  37  58 NW16G28   29.81R

$$
PAZ043-044-047-054-055-060>062-066>071-251700-
EASTERN PENNSYLVANIA

CITY           SKY/WX    TMP DP  RH WIND       PRES   REMARKS
PHILADELPHIA   MOSUNNY   52  33  48 W20G35    29.86R
NORTH PHILA    MOSUNNY   53  32  44 NW16      29.85R
BLUE BELL      MOSUNNY   52  34  50 W10G17    29.83R
DOYLESTOWN     MOSUNNY   49  32  52 W15G28    29.81R
POTTSTOWN      MOSUNNY   49  33  54 W15G22    29.85R
COATESVILLE    MOSUNNY   48  36  61 W18G28    29.86R
READING        PTSUNNY   49  31  49 W21G30    29.83R
ALLENTOWN      PTSUNNY   49  31  49 W18G25    29.81R
MOUNT POCONO   MOSUNNY   41  28  60 W25G38    29.73R
HAZLETON       CLOUDY    43  32  65 W7G18     29.81R
WILKES BARRE   CLOUDY    45  32  60 W15       29.77R

$$
DEZALL-MDZ008-012-015-019-020-251700-
DELAWARE AND EASTERN MARYLAND

CITY           SKY/WX    TMP DP  RH WIND       PRES   REMARKS
WILMINGTON     SUNNY     52  31  44 NW26G35   29.88R
DOVER          MOSUNNY   52  30  43 W17G26    29.86R
GEORGETOWN     PTSUNNY   52  33  48 NW10G26   29.90R
EASTON         MOSUNNY   54  36  50 NW13G20   29.95R
PATUXENT       SUNNY     53  38  56 NW10      29.92R
OCEAN CITY     CLOUDY    50  34  54 NW17G30   29.90R
WALLOPS ISLAND CLOUDY    50  38  63 N14G23    29.92R
CAMBRIDGE      SUNNY     54  34  47 NW14G20   29.91R
SALISBURY      CLOUDY    52  34  50 NW13G22   29.91R

$$
PAZ001-021-NYZ056-072-MDZ011-DCZ001-251700-
OTHER NEARBY LOCATIONS

CITY           SKY/WX    TMP DP  RH WIND       PRES   REMARKS
HARRISBURG     PTSUNNY   47  31  53 W15G29    29.87R
STATE COLLEGE  CLOUDY    41  32  70 W17G28    29.85R
WILLIAMSPORT   CLOUDY    45  33  63 W16       29.82R
BINGHAMTON     CLOUDY    39  31  72 W16G25    29.72R WCI  30
NEW YORK CITY  PTSUNNY   50  28  42 W13G26    29.78R
BALTIMORE      MOSUNNY   51  31  46 W18G28    29.90R
WASHINGTON DC  PTSUNNY   54  30  40 W17G28    29.94R

$$


USA.gov is the U.S. government's official web portal to all federal, state and local government web resources and services.